Theta_e
317 317 318 325 334 337 341 342 342 341 340 339 338 337 337 336 336 330 332 332 335 334 334 334 333 333 333 332 331 331 329 329 329 328 327 327 327 326 326 323 322 323 324
317 316 318 326 334 336 337 340 340 340 340 339 338 337 337 336 336 334 332 333 334 335 334 334 334 334 334 333 332 331 330 330 329 327 325 323 323 326 326 325 324 323 322
317 316 316 318 333 336 338 338 338 338 339 339 338 337 336 335 334 333 333 333 333 334 333 333 333 334 333 333 332 331 331 330 329 327 327 321 322 322 326 326 324 324 325
318 316 315 318 327 335 335 337 338 338 338 339 338 336 334 332 335 335 334 333 332 333 333 333 333 332 332 332 331 331 331 330 329 327 327 326 327 324 325 325 326 326 326
318 318 316 319 325 333 332 336 337 337 337 337 336 334 333 330 333 335 335 335 335 334 332 332 331 331 330 330 330 330 330 329 329 329 328 327 326 326 325 324 324 324 326
319 316 317 317 323 330 332 332 334 334 330 330 333 329 330 331 331 334 335 335 333 334 333 331 331 331 331 331 329 329 330 329 330 329 328 328 326 325 324 322 323 323 324
318 317 318 320 325 329 333 334 335 334 332 330 331 333 331 332 334 334 334 333 333 334 334 334 332 332 332 333 332 332 331 329 330 330 329 329 328 328 327 326 325 323 325
316 313 316 321 326 329 332 334 333 334 335 334 334 334 333 333 332 332 331 331 331 332 332 331 331 331 331 331 331 330 327 327 325 326 326 326 326 326 326 325 325 323 321
312 315 316 322 327 329 331 333 333 332 333 334 334 333 332 331 331 330 329 329 329 328 327 327 329 328 327 327 326 325 325 324 324 324 324 324 324 324 323 323 324 324 323
311 314 314 318 325 329 331 331 331 331 332 332 332 331 330 328 328 327 327 327 326 326 325 324 324 324 325 325 324 322 322 322 323 324 324 324 324 325 325 325 325 324 323
310 314 313 316 323 328 329 330 330 330 330 330 330 328 325 325 326 326 325 323 323 323 324 323 323 324 324 325 325 324 324 324 324 325 323 323 323 323 322 321 320 321 322
308 313 313 314 316 322 326 328 328 328 327 325 324 323 323 324 324 324 324 323 323 324 324 323 323 324 324 324 323 323 322 321 319 318 316 314 313 313 313 313 314 315 318
306 311 312 313 314 318 322 324 324 326 326 325 324 324 323 324 324 324 324 323 322 322 322 322 322 322 322 320 319 317 315 313 312 311 311 310 309 309 310 310 311 312 314
308 308 310 310 312 313 315 317 318 319 322 324 325 324 323 323 322 320 319 319 317 316 316 315 315 314 313 311 310 310 309 308 307 307 307 306 306 307 307 308 309 310 311
307 307 307 307 309 311 312 313 315 317 319 321 321 320 319 317 316 316 315 313 311 311 310 310 309 308 308 307 307 306 306 306 305 305 305 305 304 304 305 304 306 307 309
307 306 306 307 306 309 310 311 312 313 314 315 314 313 313 312 311 310 309 308 308 308 307 306 306 305 305 305 305 305 305 305 305 304 304 304 304 303 303 304 305 305 305
307 307 306 306 307 308 310 310 310 310 311 311 310 310 310 309 308 307 307 307 306 306 305 305 305 305 304 305 305 305 304 304 304 303 302 302 301 301 300 301 302 302 302
307 306 305 306 307 308 308 308 308 308 308 307 307 307 307 307 306 306 305 305 305 304 304 304 304 303 303 302 303 303 303 303 302 301 299 299 299 299 298 298 298 298 298
305 306 307 307 307 307 307 307 306 306 306 306 306 306 305 305 304 304 304 303 303 303 303 303 303 302 302 301 301 301 300 299 299 299 298 298 298 298 296 296 295 295 294
305 306 306 306 306 306 306 306 305 305 305 305 305 305 304 304 304 303 303 303 303 303 302 302 301 301 300 299 298 297 298 298 297 297 298 297 296 295 294 294 293 291 292
303 304 304 304 304 305 305 304 304 304 305 305 304 304 304 304 303 303 303 302 302 302 301 300 300 300 299 299 298 297 297 296 296 296 296 296 295 294 294 293 291 289 288
303 303 303 302 303 304 304 304 304 303 304 304 304 303 303 303 303 302 302 302 301 300 300 299 299 299 299 298 298 296 296 296 295 294 294 294 293 293 293 291 290 287 287
302 302 301 301 301 303 304 303 303 304 304 303 303 303 302 302 302 302 301 301 300 299 299 298 298 299 298 298 297 296 296 296 295 294 293 292 292 291 291 289 288 287 287
302 302 301 301 300 301 302 302 302 302 302 302 302 301 301 301 300 300 300 300 299 299 298 297 297 297 297 297 297 296 296 296 295 294 292 291 291 290 290 289 287 287 287
302 302 301 300 300 300 300 300 301 301 301 300 300 300 300 300 299 299 299 298 298 298 297 297 296 296 297 297 296 296 296 296 294 293 291 291 289 289 289 289 287 286 286
300 300 299 299 299 299 299 299 300 300 299 299 299 299 299 298 298 298 298 298 298 297 297 296 296 296 295 296 295 296 295 295 293 291 291 290 288 288 288 288 287 286 284
Wind_Speed
5 16 18 14 19 30 32 36 37 39 38 37 35 32 32 33 31 32 31 29 30 29 26 24 23 23 23 22 20 20 20 17 14 12 13 15 16 19 19 18 18 18 18
6 10 16 15 15 22 30 33 36 38 34 33 34 33 33 30 33 34 32 29 30 29 27 25 25 27 26 24 24 23 21 18 14 6 2 2 6 18 24 22 22 19 17
5 8 10 14 14 30 30 29 36 38 35 34 34 26 30 27 25 27 27 29 27 28 28 28 25 26 26 25 24 23 22 19 18 18 7 0 4 4 5 13 20 18 18
4 7 10 16 13 26 28 32 32 29 31 37 34 40 26 16 24 27 25 21 20 25 28 29 26 24 25 23 22 21 22 21 21 17 23 18 4 1 3 2 4 13 19
7 9 10 16 10 16 15 16 31 26 25 26 23 13 14 16 9 18 29 25 23 28 30 25 22 20 22 22 24 23 21 21 23 24 14 25 22 17 6 3 4 6 10
8 10 15 13 12 13 31 24 24 25 18 21 24 25 30 29 25 25 25 30 32 32 27 26 23 22 20 26 28 27 26 30 30 29 26 18 8 13 6 3 7 7 9
7 10 6 8 10 12 21 20 18 19 23 24 29 29 31 33 36 33 28 27 29 26 29 22 25 27 24 26 25 20 22 28 27 31 29 26 20 11 8 5 3 6 8
12 15 10 15 16 16 15 16 16 17 20 22 19 22 28 30 28 26 27 24 22 20 13 12 12 13 13 13 10 10 9 12 13 9 5 6 7 8 8 9 5 3 6
16 8 8 15 18 16 19 19 18 17 18 16 15 17 18 15 16 15 14 12 11 11 11 9 9 9 9 9 11 11 11 12 14 16 14 13 14 18 17 19 20 15 3
6 6 6 13 18 16 15 17 19 19 20 20 19 18 16 13 14 15 14 13 12 12 9 8 10 11 10 11 10 9 9 9 11 15 16 14 15 18 16 17 21 22 15
8 7 6 11 15 16 16 16 18 20 20 21 20 18 16 13 13 13 12 10 10 10 11 12 11 12 11 12 12 11 11 13 12 9 10 11 12 14 16 17 16 16 16
5 6 7 13 12 15 16 18 18 18 20 19 19 17 15 13 12 12 12 13 12 12 11 11 11 12 12 12 13 10 8 8 10 12 12 14 13 13 14 15 17 19 20
5 4 6 7 14 17 16 16 14 13 15 16 15 15 13 12 12 10 10 8 7 8 8 9 9 9 9 8 7 6 5 5 6 8 9 11 12 15 14 14 17 17 16
4 1 3 5 11 15 15 13 11 12 13 14 15 14 11 9 7 6 7 6 6 6 6 6 7 6 5 5 4 2 0 2 4 7 9 10 13 13 14 15 16 16 15
5 4 3 3 10 11 12 11 10 11 12 13 13 12 10 9 8 6 6 7 7 7 7 6 6 6 4 2 1 1 2 3 4 4 8 9 11 14 15 15 16 15 16
6 5 6 6 8 11 10 9 10 10 11 11 11 11 12 12 12 12 11 10 9 9 8 7 6 4 3 2 3 3 3 5 7 9 10 12 13 14 13 16 15 14 13
4 5 7 7 11 11 13 11 9 8 8 8 10 11 12 13 12 11 11 10 9 8 7 5 3 2 1 4 6 6 7 8 9 10 11 11 11 13 12 12 11 11 11
5 5 5 8 9 9 9 10 9 9 10 10 11 12 12 11 10 10 9 9 7 7 6 4 3 2 3 6 7 7 6 7 8 8 9 11 12 11 11 11 9 8 8
3 3 4 8 10 11 10 10 10 9 10 11 11 11 11 11 11 11 10 9 8 7 6 4 4 5 6 8 8 7 6 7 7 8 7 8 10 9 10 9 8 7 5
6 7 7 7 7 7 9 10 10 10 10 10 10 10 11 11 11 11 10 8 7 6 6 6 7 8 8 7 6 6 8 8 7 6 6 7 7 6 8 8 7 7 6
10 9 10 10 5 5 8 8 9 9 9 9 10 10 10 10 9 9 8 8 7 6 7 8 9 8 8 7 6 7 8 8 8 7 7 7 8 7 7 9 7 7 6
9 8 9 9 7 3 4 5 5 3 5 9 10 10 10 9 9 9 9 7 7 8 8 8 9 8 8 9 9 10 9 10 10 10 9 9 9 8 7 6 7 8 8
6 7 7 7 7 6 2 4 4 4 6 7 9 9 9 9 9 9 9 9 9 9 9 9 11 10 9 10 11 11 10 10 14 13 11 10 9 8 7 6 9 7 12
4 3 4 4 5 5 5 3 1 1 3 7 9 9 9 9 9 9 9 10 11 11 12 11 12 11 11 11 11 12 12 11 13 15 12 11 9 8 8 9 9 10 12
3 3 2 2 1 1 2 1 1 2 4 5 7 8 9 9 9 10 10 12 12 12 12 12 13 12 14 12 11 11 12 14 15 14 14 13 12 12 14 13 12 12 12
3 3 3 2 1 1 0 1 2 3 4 6 7 8 9 10 10 10 10 10 11 10 11 13 15 15 15 14 13 13 13 14 12 13 16 17 16 17 17 17 17 16 15
Wind_Direction
293 331 327 321 232 210 188 179 176 183 178 176 180 185 190 193 195 196 196 198 202 202 201 201 200 201 206 212 217 218 220 221 227 241 255 261 258 254 251 249 248 248 251
320 327 335 336 239 218 212 201 189 180 176 177 180 184 190 194 197 200 200 201 203 205 206 208 210 212 209 212 212 211 214 223 223 210 206 304 280 250 245 245 248 250 248
310 307 314 312 223 208 208 204 202 195 179 176 174 179 183 177 176 193 195 197 202 206 207 205 207 208 211 210 209 211 221 226 225 216 205 154 241 316 239 231 238 241 246
275 288 292 285 237 202 196 200 194 179 176 182 178 177 170 169 184 187 205 203 203 207 212 213 212 209 212 217 224 224 233 236 234 226 222 234 233 167 333 295 246 231 238
280 282 275 271 275 198 195 209 191 181 169 179 204 177 173 191 267 203 196 204 208 225 223 218 213 208 219 220 220 217 235 244 248 237 216 225 238 239 189 256 281 271 245
209 259 259 274 266 187 168 202 178 178 181 190 188 179 192 199 228 221 206 207 220 218 219 217 216 218 219 234 231 227 229 241 246 246 239 227 210 219 198 211 259 256 273
256 266 212 231 239 202 163 168 166 161 184 194 203 194 197 200 205 204 203 204 209 212 215 208 209 221 227 235 250 243 248 241 253 259 238 238 232 243 206 195 243 245 268
256 252 208 202 199 199 167 167 168 166 176 186 188 192 200 202 206 207 200 202 206 207 210 215 214 216 211 217 229 234 238 243 264 282 276 300 293 294 293 268 247 278 256
228 228 179 181 185 191 174 176 179 182 182 186 179 177 179 170 178 181 183 186 183 183 183 189 198 205 209 237 251 253 255 265 290 284 286 277 278 276 282 276 262 240 268
200 205 176 165 184 179 183 175 184 187 183 183 180 177 180 178 177 177 174 173 175 186 213 234 241 242 243 247 252 257 261 271 284 280 276 279 282 280 284 282 281 262 241
202 182 160 172 179 181 185 181 182 183 182 180 175 181 175 172 176 182 186 197 212 220 242 247 243 232 235 244 241 248 262 272 274 273 277 280 280 284 285 291 291 286 279
207 186 167 165 169 181 183 185 188 182 176 175 175 172 181 187 191 196 212 227 238 242 236 235 232 230 231 235 245 253 256 262 278 286 294 297 300 300 299 297 295 282 279
189 152 137 164 173 188 190 190 188 183 178 179 179 180 184 193 201 210 220 221 217 218 215 220 226 222 212 209 208 220 239 277 288 298 302 310 315 317 319 316 303 296 288
37 6 148 148 163 175 180 182 181 182 176 180 179 187 194 201 199 202 204 205 192 184 173 174 180 179 174 168 158 150 113 316 322 325 326 328 327 323 320 313 302 297 287
54 70 89 118 134 147 160 163 170 169 167 169 171 171 179 184 185 183 173 167 159 152 143 146 153 149 154 121 78 32 2 340 329 324 327 333 331 331 325 318 303 294 288
70 82 76 85 104 134 138 150 161 163 164 163 167 172 174 170 162 162 162 160 155 152 147 154 156 138 89 30 342 331 331 325 323 324 321 317 315 307 309 305 299 295 284
102 104 121 129 136 146 151 151 161 169 166 172 171 171 167 164 161 161 161 164 163 160 158 158 149 110 15 298 293 307 313 309 308 310 311 310 312 313 311 304 301 296 280
89 109 116 121 133 144 153 156 162 163 165 165 167 169 169 170 168 175 173 179 178 169 177 178 178 201 248 275 297 304 311 308 312 313 317 317 316 315 303 299 304 305 301
54 62 114 133 143 150 153 154 157 167 176 178 178 180 185 184 182 185 184 187 189 189 199 211 236 258 262 273 283 302 324 320 321 324 323 317 308 299 291 297 298 296 305
76 105 116 126 139 157 165 159 165 176 185 191 192 191 194 193 192 192 192 199 205 215 231 247 256 265 267 273 294 296 317 306 303 310 319 306 298 289 286 293 291 283 281
57 91 103 103 109 166 177 168 176 193 194 193 194 195 198 202 203 204 207 214 217 227 236 252 275 284 283 281 279 268 290 295 288 292 299 295 285 278 268 286 283 270 274
45 61 75 61 45 48 195 189 207 201 196 199 200 202 203 207 210 212 213 218 226 237 258 276 285 288 286 280 270 254 260 286 289 295 294 289 284 274 252 255 282 266 260
51 54 65 64 49 40 46 220 243 248 226 215 213 212 208 210 216 221 220 222 233 243 252 261 275 280 277 277 274 268 262 257 269 289 289 286 275 264 249 249 257 258 247
81 66 64 53 44 43 54 98 144 168 202 209 204 204 209 217 223 226 228 233 237 243 251 256 263 273 274 277 284 281 269 259 255 268 273 276 270 257 255 257 253 249 251
130 122 110 86 58 52 71 82 116 207 219 223 223 227 232 229 225 227 232 237 242 249 257 266 269 274 282 295 296 289 278 272 265 260 259 262 251 245 244 250 255 254 254
161 141 135 157 180 174 169 232 233 224 223 218 219 218 219 219 225 231 238 248 256 261 269 280 282 283 282 288 290 291 286 276 263 241 251 256 250 247 251 254 259 260 258